Location: ?????
(32.7281°N, 34.9563°E)
Time: 00:49:19
(UTC+00:00)

OAO 2 Rocket - Pass Details

Date: 29 October 2020
Orbit: 676 x 746 km, 35.0° (Epoch: 25 November)

Event Time Altitude Azimuth Distance (km) Brightness Sun altitude
Rises 17:05:08 0° 281° (W) 3,050 7.8 -28.6°
Reaches altitude 10° 17:07:34 10° 283° (WNW) 2,124 6.7 -29.1°
Enters shadow 17:11:09 47° 297° (WNW) 897 4.1 -29.8°
